TimeHST,TemperatureF,Dew PointF,Humidity,Sea Level PressureIn,VisibilityMPH,Wind Direction,Wind SpeedMPH,Gust SpeedMPH,PrecipitationIn,Events,Conditions,WindDirDegrees,DateUTC
12:53 AM,-9999,-9999,N/A,30.19,-9999.0,North,-9999.0,-,N/A,,Unknown,0,2013-02-27 10:53:00
1:53 AM,-9999,-9999,N/A,30.19,-9999.0,North,-9999.0,-,N/A,,Unknown,0,2013-02-27 11:53:00
2:53 AM,-9999,-9999,N/A,30.17,-9999.0,North,-9999.0,-,N/A,,Unknown,0,2013-02-27 12:53:00
3:53 AM,-9999,-9999,N/A,30.17,-9999.0,ENE,6.9,-,N/A,,Unknown,70,2013-02-27 13:53:00
4:53 AM,66.9,57.0,70,30.17,10.0,East,3.5,-,N/A,,Clear,90,2013-02-27 14:53:00
5:53 AM,66.9,59.0,76,30.18,10.0,Variable,4.6,-,N/A,,Partly Cloudy,0,2013-02-27 15:53:00
6:53 AM,66.9,57.0,70,30.19,10.0,ENE,4.6,-,N/A,,Clear,70,2013-02-27 16:53:00
7:53 AM,71.1,55.9,59,30.21,10.0,ENE,4.6,-,N/A,,Clear,70,2013-02-27 17:53:00
8:53 AM,75.0,55.9,51,30.23,10.0,East,8.1,-,N/A,,Clear,90,2013-02-27 18:53:00
9:53 AM,77.0,53.1,43,30.23,10.0,ENE,11.5,19.6,N/A,,Partly Cloudy,70,2013-02-27 19:53:00
10:53 AM,80.1,55.9,43,30.22,10.0,East,10.4,24.2,N/A,,Clear,80,2013-02-27 20:53:00
11:53 AM,80.1,54.0,40,30.20,10.0,East,13.8,21.9,N/A,,Clear,90,2013-02-27 21:53:00
12:53 PM,81.0,52.0,36,30.18,10.0,East,12.7,25.3,N/A,,Clear,100,2013-02-27 22:53:00
1:53 PM,81.0,57.0,44,30.15,10.0,ENE,11.5,25.3,N/A,,Partly Cloudy,70,2013-02-27 23:53:00
2:53 PM,80.1,57.0,45,30.14,10.0,ENE,11.5,20.7,N/A,,Scattered Clouds,60,2013-02-28 00:53:00
3:53 PM,79.0,57.0,47,30.13,10.0,ENE,9.2,16.1,N/A,,Scattered Clouds,70,2013-02-28 01:53:00
4:53 PM,78.1,57.0,48,30.14,10.0,ENE,8.1,19.6,N/A,,Clear,70,2013-02-28 02:53:00
5:53 PM,75.0,57.9,55,30.15,10.0,Variable,6.9,17.3,N/A,,Partly Cloudy,0,2013-02-28 03:53:00
6:53 PM,73.0,59.0,61,30.17,10.0,East,5.8,-,N/A,,Partly Cloudy,80,2013-02-28 04:53:00
7:53 PM,71.1,57.9,63,30.18,10.0,Variable,5.8,-,N/A,,Clear,0,2013-02-28 05:53:00
8:53 PM,71.1,57.9,63,30.20,10.0,Variable,6.9,-,N/A,,Clear,0,2013-02-28 06:53:00
9:53 PM,70.0,57.9,65,30.21,10.0,East,6.9,-,N/A,,Clear,80,2013-02-28 07:53:00
10:53 PM,70.0,59.0,68,30.20,10.0,ENE,3.5,-,N/A,,Scattered Clouds,70,2013-02-28 08:53:00
11:53 PM,71.1,57.0,61,30.19,10.0,ENE,5.8,-,N/A,,Partly Cloudy,70,2013-02-28 09:53:00